Tracking 29892 objects as of 21-Nov-2024
HD Live streaming from Space Station
objects crossing your sky now

STARLINK-30613

Track STARLINK-30613 now!
10-day predictions
STARLINK-30613 is classified as:


NORAD ID: 58077
Int'l Code: 2023-160C
Perigee: 565.4 km
Apogee: 566.9 km
Inclination: 43.0 °
Period: 95.8 minutes
Semi major axis: 6937 km
RCS: Unknown
Launch date: October 18, 2023
Source: United States (US)
Launch site: AIR FORCE EASTERN TEST RANGE (AFETR)
Your satellite tracking list
Your tracking list is empty




NASA's NSSDC Master Catalog

Two Line Element Set (TLE):
1 58077U 23160C   24325.82407070  .00002074  00000-0  16847-3 0  9995
2 58077  43.0013 135.3342 0001081 278.1966  81.8754 15.02546810 61271
Source of the keplerian elements: AFSPC